Tracking 19146 objects as of 23-Apr-2018
HD Live streaming from Space Station
objects crossing your sky now

FENGYUN 1C DEB

Track FENGYUN 1C DEB now!
10-day predictions


NORAD ID: 30924
Int'l Code: 1999-025AZN
Perigee: 781.4 km
Apogee: 864.9 km
Inclination: 99.0 °
Period: 101.2 minutes
Semi major axis: 7194 km
RCS: 0.029 m2 (small)
Launch date: May 10, 1999
Source: People's Republic of China (PRC)
Launch site: Taiyaun Space Center, China (TSC)

Note: This is SATELLITE DEBRIS
aabbcc
Your satellite tracking list
Your tracking list is empty




NASA's NSSDC Master Catalog

Two Line Element Set (TLE):
1 30924U 99025AZN 18113.54861576  .00001420  00000-0  64245-3 0  9990
2 30924  98.9934 155.3572 0058082 123.8194  41.0714 14.22765043572501
Source of the keplerian elements: AFSPC